Location: Miami
(25.7742°N, 80.1936°W)
Time: 01:23:19
(UTC-04:00)

ISS - Pass Details

Date: 15 June 2025
Orbit: 413 x 417 km, 51.6° (Epoch: 16 July)

Event Time Altitude Azimuth Distance (km) Brightness Sun altitude
Exits shadow 05:29:19 - 182° (S) 1,619 -1.1 -12.5°
Reaches altitude 10° 05:29:44 10° 177° (S) 1,481 -1.3 -12.4°
Maximum altitude 05:32:19 21° 126° (SE) 991 -1.6 -11.9°
Drops below altitude 10° 05:34:56 10° 75° (ENE) 1,490 0.3 -11.4°
Sets 05:37:21 0° 59° (ENE) 2,357 2.3 -11.0°
